Tracking 25734 objects as of 26-May-2022
HD Live streaming from Space Station
objects crossing your sky now

SATCOM 3 DEB

Track SATCOM 3 DEB now!


NORAD ID: 49958
Int'l Code: 1979-101AC
Perigee: 9,506.9 km
Apogee: 36,425.3 km
Inclination: 10.2 °
Period: 833.5 minutes
Semi major axis: 29337 km
RCS: Unknown
Launch date: December 7, 1979
Source: United States (US)
Launch site: AIR FORCE EASTERN TEST RANGE (AFETR)

Note: This is SATELLITE DEBRIS
aabbcc
Your satellite tracking list
Your tracking list is empty




NASA's NSSDC Master Catalog

Two Line Element Set (TLE):
1 49958U 79101AC  22143.17323069 -.00000059  00000-0  00000-0 0  9991
2 49958  10.2064 118.9081 4587762  37.7845  78.4480  1.72773518 87480
Source of the keplerian elements: AFSPC